Location: Claremont
(33.9858°S, 18.4575°E)
Time: 04:03:01
(UTC+00:00)

Chunghua 1 - Pass Details

Date: 03 March 2021
Orbit: 454 x 487 km, 34.9° (Epoch: 10 April)

Event Time Altitude Azimuth Distance (km) Brightness Sun altitude
Rises 18:12:20 0° 264° (W) 2,475 10.1 -11.5°
Reaches altitude 10° 18:14:30 10° 263° (W) 1,602 8.7 -11.9°
Maximum altitude 18:18:10 77° 176° (S) 477 4.5 -12.6°
Enters shadow 18:20:29 21° 92° (E) 1,079 5.7 -13.1°
